Year,Month,Day,Hour,Minute,Value (Times are PST for temperature in C)
2013,04,03,00,00,8.70
2013,04,03,00,01,8.70
2013,04,03,00,02,8.70
2013,04,03,00,03,8.70
2013,04,03,00,04,8.70
2013,04,03,00,05,8.70
2013,04,03,00,06,8.70
2013,04,03,00,07,8.70
2013,04,03,00,08,8.70
2013,04,03,00,09,8.70
2013,04,03,00,10,8.60
2013,04,03,00,11,8.60
2013,04,03,00,12,8.60
2013,04,03,00,13,8.60
2013,04,03,00,14,8.60
2013,04,03,00,15,8.60
2013,04,03,00,16,8.60
2013,04,03,00,17,8.60
2013,04,03,00,18,8.60
2013,04,03,00,19,8.60
2013,04,03,00,20,8.60
2013,04,03,00,21,8.60
2013,04,03,00,22,8.60
2013,04,03,00,23,8.60
2013,04,03,00,24,8.60
2013,04,03,00,25,8.60
2013,04,03,00,26,8.60
2013,04,03,00,27,8.50
2013,04,03,00,28,8.60
2013,04,03,00,29,8.50
2013,04,03,00,30,8.50
2013,04,03,00,31,8.50
2013,04,03,00,32,8.50
2013,04,03,00,33,8.50
2013,04,03,00,34,8.50
2013,04,03,00,35,8.50
2013,04,03,00,36,8.50
2013,04,03,00,37,8.50
2013,04,03,00,38,8.50
2013,04,03,00,39,8.50
2013,04,03,00,40,8.50
2013,04,03,00,41,8.50
2013,04,03,00,42,8.50
2013,04,03,00,43,8.50
2013,04,03,00,44,8.50
2013,04,03,00,45,8.50
2013,04,03,00,46,8.40
2013,04,03,00,47,8.40
2013,04,03,00,48,8.40
2013,04,03,00,49,8.40
2013,04,03,00,50,8.40
2013,04,03,00,51,8.40
2013,04,03,00,52,8.40
2013,04,03,00,53,8.40
2013,04,03,00,54,8.40
2013,04,03,00,55,8.40
2013,04,03,00,56,8.40
2013,04,03,00,57,8.40
2013,04,03,00,58,8.40
2013,04,03,00,59,8.40
2013,04,03,01,00,8.40
2013,04,03,01,01,8.40
2013,04,03,01,02,8.40
2013,04,03,01,03,8.40
2013,04,03,01,04,8.40
2013,04,03,01,05,8.40
2013,04,03,01,06,8.40
2013,04,03,01,07,8.40
2013,04,03,01,08,8.40
2013,04,03,01,09,8.40
2013,04,03,01,10,8.40
2013,04,03,01,11,8.40
2013,04,03,01,12,8.40
2013,04,03,01,13,8.40
2013,04,03,01,14,8.40
2013,04,03,01,15,8.40
2013,04,03,01,16,8.40
2013,04,03,01,17,8.30
2013,04,03,01,18,8.30
2013,04,03,01,19,8.30
2013,04,03,01,20,8.30
2013,04,03,01,21,8.30
2013,04,03,01,22,8.30
2013,04,03,01,23,8.30
2013,04,03,01,24,8.30
2013,04,03,01,25,8.30
2013,04,03,01,26,8.30
2013,04,03,01,27,8.30
2013,04,03,01,28,8.30
2013,04,03,01,29,8.30
2013,04,03,01,30,8.30
2013,04,03,01,31,8.30
2013,04,03,01,32,8.30
2013,04,03,01,33,8.30
2013,04,03,01,34,8.30
2013,04,03,01,35,8.30
2013,04,03,01,36,8.30
2013,04,03,01,37,8.30
2013,04,03,01,38,8.30
2013,04,03,01,39,8.30
2013,04,03,01,40,8.30
2013,04,03,01,41,8.30
2013,04,03,01,42,8.30
2013,04,03,01,43,8.30
2013,04,03,01,44,8.30
2013,04,03,01,45,8.30
2013,04,03,01,46,8.30
2013,04,03,01,47,8.30
2013,04,03,01,48,8.30
2013,04,03,01,49,8.30
2013,04,03,01,50,8.30
2013,04,03,01,51,8.30
2013,04,03,01,52,8.30
2013,04,03,01,53,8.30
2013,04,03,01,54,8.30
2013,04,03,01,55,8.30
2013,04,03,01,56,8.30
2013,04,03,01,57,8.30
2013,04,03,01,58,8.30
2013,04,03,01,59,8.30
2013,04,03,02,00,8.30
2013,04,03,02,01,8.30
2013,04,03,02,02,8.30
2013,04,03,02,03,8.30
2013,04,03,02,04,8.30
2013,04,03,02,05,8.30
2013,04,03,02,06,8.30
2013,04,03,02,07,8.30
2013,04,03,02,08,8.30
2013,04,03,02,09,8.30
2013,04,03,02,10,8.30
2013,04,03,02,11,8.30
2013,04,03,02,12,8.30
2013,04,03,02,13,8.30
2013,04,03,02,14,8.30
2013,04,03,02,15,8.30
2013,04,03,02,16,8.30
2013,04,03,02,17,8.30
2013,04,03,02,18,8.30
2013,04,03,02,19,8.30
2013,04,03,02,20,8.30
2013,04,03,02,21,8.30
2013,04,03,02,22,8.30
2013,04,03,02,23,8.30
2013,04,03,02,24,8.30
2013,04,03,02,25,8.20
2013,04,03,02,26,8.20
2013,04,03,02,27,8.20
2013,04,03,02,28,8.20
2013,04,03,02,29,8.20
2013,04,03,02,30,8.20
2013,04,03,02,31,8.20
2013,04,03,02,32,8.20
2013,04,03,02,33,8.20
2013,04,03,02,34,8.20
2013,04,03,02,35,8.20
2013,04,03,02,36,8.20
2013,04,03,02,37,8.20
2013,04,03,02,38,8.20
2013,04,03,02,39,8.20
2013,04,03,02,40,8.20
2013,04,03,02,41,8.10
2013,04,03,02,42,8.10
2013,04,03,02,43,8.10
2013,04,03,02,44,8.10
2013,04,03,02,45,8.10
2013,04,03,02,46,8.10
2013,04,03,02,47,8.10
2013,04,03,02,48,8.10
2013,04,03,02,49,8.10
2013,04,03,02,50,8.00
2013,04,03,02,51,8.00
2013,04,03,02,52,8.00
2013,04,03,02,53,8.00
2013,04,03,02,54,7.90
2013,04,03,02,55,7.90
2013,04,03,02,56,7.90
2013,04,03,02,57,7.90
2013,04,03,02,58,7.90
2013,04,03,02,59,7.90
2013,04,03,03,00,7.90
2013,04,03,03,01,7.80
2013,04,03,03,02,7.80
2013,04,03,03,03,7.80
2013,04,03,03,04,7.80
2013,04,03,03,05,7.80
2013,04,03,03,06,7.80
2013,04,03,03,07,7.80
2013,04,03,03,08,7.70
2013,04,03,03,09,7.70
2013,04,03,03,10,7.70
2013,04,03,03,11,7.70
2013,04,03,03,12,7.70
2013,04,03,03,13,7.60
2013,04,03,03,14,7.60
2013,04,03,03,15,7.60
2013,04,03,03,16,7.50
2013,04,03,03,17,7.50
2013,04,03,03,18,7.50
2013,04,03,03,19,7.40
2013,04,03,03,20,7.40
2013,04,03,03,21,7.40
2013,04,03,03,22,7.40
2013,04,03,03,23,7.30
2013,04,03,03,24,7.30
2013,04,03,03,25,7.30
2013,04,03,03,26,7.20
2013,04,03,03,27,7.20
2013,04,03,03,28,7.20
2013,04,03,03,29,7.20
2013,04,03,03,30,7.10
2013,04,03,03,31,7.10
2013,04,03,03,32,7.10
2013,04,03,03,33,7.10
2013,04,03,03,34,7.00
2013,04,03,03,35,7.00
2013,04,03,03,36,7.00
2013,04,03,03,37,7.00
2013,04,03,03,38,6.90
2013,04,03,03,39,6.90
2013,04,03,03,40,6.90
2013,04,03,03,41,6.90
2013,04,03,03,42,6.80
2013,04,03,03,43,6.80
2013,04,03,03,44,6.80
2013,04,03,03,45,6.80
2013,04,03,03,46,6.80
2013,04,03,03,47,6.70
2013,04,03,03,48,6.70
2013,04,03,03,49,6.70
2013,04,03,03,50,6.70
2013,04,03,03,51,6.60
2013,04,03,03,52,6.60
2013,04,03,03,53,6.60
2013,04,03,03,54,6.50
2013,04,03,03,55,6.50
2013,04,03,03,56,6.50
2013,04,03,03,57,6.40
2013,04,03,03,58,6.40
2013,04,03,03,59,6.40
2013,04,03,04,00,6.30
2013,04,03,04,01,6.30
2013,04,03,04,02,6.30
2013,04,03,04,03,6.30
2013,04,03,04,04,6.30
2013,04,03,04,05,6.30
2013,04,03,04,06,6.30
2013,04,03,04,07,6.30
2013,04,03,04,08,6.30
2013,04,03,04,09,6.20
2013,04,03,04,10,6.20
2013,04,03,04,11,6.20
2013,04,03,04,12,6.20
2013,04,03,04,13,6.20
2013,04,03,04,14,6.10
2013,04,03,04,15,6.10
2013,04,03,04,16,6.10
2013,04,03,04,17,6.10
2013,04,03,04,18,6.10
2013,04,03,04,19,6.10
2013,04,03,04,20,6.10
2013,04,03,04,21,6.10
2013,04,03,04,22,6.10
2013,04,03,04,23,6.00
2013,04,03,04,24,6.00
2013,04,03,04,25,6.00
2013,04,03,04,26,5.90
2013,04,03,04,27,5.90
2013,04,03,04,28,5.90
2013,04,03,04,29,5.90
2013,04,03,04,30,5.80
2013,04,03,04,31,5.80
2013,04,03,04,32,5.80
2013,04,03,04,33,5.70
2013,04,03,04,34,5.70
2013,04,03,04,35,5.70
2013,04,03,04,36,5.70
2013,04,03,04,37,5.60
2013,04,03,04,38,5.60
2013,04,03,04,39,5.60
2013,04,03,04,40,5.60
2013,04,03,04,41,5.60
2013,04,03,04,42,5.50
2013,04,03,04,43,5.50
2013,04,03,04,44,5.50
2013,04,03,04,45,5.40
2013,04,03,04,46,5.40
2013,04,03,04,47,5.40
2013,04,03,04,48,5.40
2013,04,03,04,49,5.30
2013,04,03,04,50,5.30
2013,04,03,04,51,5.30
2013,04,03,04,52,5.30
2013,04,03,04,53,5.30
2013,04,03,04,54,5.30
2013,04,03,04,55,5.20
2013,04,03,04,56,5.20
2013,04,03,04,57,5.20
2013,04,03,04,58,5.20
2013,04,03,04,59,5.20
2013,04,03,05,00,5.20
2013,04,03,05,01,5.20
2013,04,03,05,02,5.20
2013,04,03,05,03,5.20
2013,04,03,05,04,5.20
2013,04,03,05,05,5.20
2013,04,03,05,06,5.20
2013,04,03,05,07,5.20
2013,04,03,05,08,5.20
2013,04,03,05,09,5.20
2013,04,03,05,10,5.20
2013,04,03,05,11,5.20
2013,04,03,05,12,5.20
2013,04,03,05,13,5.20
2013,04,03,05,14,5.20
2013,04,03,05,15,5.20
2013,04,03,05,16,5.20
2013,04,03,05,17,5.20
2013,04,03,05,18,5.20
2013,04,03,05,19,5.30
2013,04,03,05,20,5.30
2013,04,03,05,21,5.30
2013,04,03,05,22,5.30
2013,04,03,05,23,5.30
2013,04,03,05,24,5.30
2013,04,03,05,25,5.30
2013,04,03,05,26,5.30
2013,04,03,05,27,5.30
2013,04,03,05,28,5.30
2013,04,03,05,29,5.30
2013,04,03,05,30,5.30
2013,04,03,05,31,5.30
2013,04,03,05,32,5.30
2013,04,03,05,33,5.40
2013,04,03,05,34,5.40
2013,04,03,05,35,5.40
2013,04,03,05,36,5.40
2013,04,03,05,37,5.40
2013,04,03,05,38,5.40
2013,04,03,05,39,5.40
2013,04,03,05,40,5.40
2013,04,03,05,41,5.40
2013,04,03,05,42,5.40
2013,04,03,05,43,5.40
2013,04,03,05,44,5.40
2013,04,03,05,45,5.40
2013,04,03,05,46,5.50
2013,04,03,05,47,5.50
2013,04,03,05,48,5.50
2013,04,03,05,49,5.50
2013,04,03,05,50,5.60
2013,04,03,05,51,5.60
2013,04,03,05,52,5.60
2013,04,03,05,53,5.60
2013,04,03,05,54,5.60
2013,04,03,05,55,5.60
2013,04,03,05,56,5.70
2013,04,03,05,57,5.70
2013,04,03,05,58,5.70
2013,04,03,05,59,5.70
2013,04,03,06,00,5.70
2013,04,03,06,01,5.70
2013,04,03,06,02,5.70
2013,04,03,06,03,5.80
2013,04,03,06,04,5.80
2013,04,03,06,05,5.80
2013,04,03,06,06,5.80
2013,04,03,06,07,5.80
2013,04,03,06,08,5.80
2013,04,03,06,09,5.80
2013,04,03,06,10,5.80
2013,04,03,06,11,5.90
2013,04,03,06,12,5.90
2013,04,03,06,13,5.90
2013,04,03,06,14,5.90
2013,04,03,06,15,5.90
2013,04,03,06,16,5.90
2013,04,03,06,17,6.00
2013,04,03,06,18,6.00
2013,04,03,06,19,6.00
2013,04,03,06,20,6.10
2013,04,03,06,21,6.10
2013,04,03,06,22,6.10
2013,04,03,06,23,6.10
2013,04,03,06,24,6.10
2013,04,03,06,25,6.10
2013,04,03,06,26,6.10
2013,04,03,06,27,6.10
2013,04,03,06,28,6.10
2013,04,03,06,29,6.10
2013,04,03,06,30,6.10
2013,04,03,06,31,6.10
2013,04,03,06,32,6.10
2013,04,03,06,33,6.20
2013,04,03,06,34,6.20
2013,04,03,06,35,6.20
2013,04,03,06,36,6.20
2013,04,03,06,37,6.20
2013,04,03,06,38,6.20
2013,04,03,06,39,6.20
2013,04,03,06,40,6.20
2013,04,03,06,41,6.20
2013,04,03,06,42,6.30
2013,04,03,06,43,6.30
2013,04,03,06,44,6.30
2013,04,03,06,45,6.30
2013,04,03,06,46,6.30
2013,04,03,06,47,6.30
2013,04,03,06,48,6.30
2013,04,03,06,49,6.30
2013,04,03,06,50,6.30
2013,04,03,06,51,6.30
2013,04,03,06,52,6.30
2013,04,03,06,53,6.30
2013,04,03,06,54,6.30
2013,04,03,06,55,6.30
2013,04,03,06,56,6.30
2013,04,03,06,57,6.30
2013,04,03,06,58,6.30
2013,04,03,06,59,6.30
2013,04,03,07,00,6.30
2013,04,03,07,01,6.40
2013,04,03,07,02,6.40
2013,04,03,07,03,6.40
2013,04,03,07,04,6.40
2013,04,03,07,05,6.40
2013,04,03,07,06,6.40
2013,04,03,07,07,6.40
2013,04,03,07,08,6.40
2013,04,03,07,09,6.40
2013,04,03,07,10,6.40
2013,04,03,07,11,6.40
2013,04,03,07,12,6.50
2013,04,03,07,13,6.50
2013,04,03,07,14,6.50
2013,04,03,07,15,6.50
2013,04,03,07,16,6.50
2013,04,03,07,17,6.50
2013,04,03,07,18,6.50
2013,04,03,07,19,6.50
2013,04,03,07,20,6.50
2013,04,03,07,21,6.50
2013,04,03,07,22,6.60
2013,04,03,07,23,6.60
2013,04,03,07,24,6.60
2013,04,03,07,25,6.60
2013,04,03,07,26,6.60
2013,04,03,07,27,6.60
2013,04,03,07,28,6.60
2013,04,03,07,29,6.60
2013,04,03,07,30,6.70
2013,04,03,07,31,6.70
2013,04,03,07,32,6.70
2013,04,03,07,33,6.70
2013,04,03,07,34,6.70
2013,04,03,07,35,6.70
2013,04,03,07,36,6.80
2013,04,03,07,37,6.80
2013,04,03,07,38,6.80
2013,04,03,07,39,6.80
2013,04,03,07,40,6.80
2013,04,03,07,41,6.80
2013,04,03,07,42,6.80
2013,04,03,07,43,6.80
2013,04,03,07,44,6.80
2013,04,03,07,45,6.80
2013,04,03,07,46,6.80
2013,04,03,07,47,6.80
2013,04,03,07,48,6.80
2013,04,03,07,49,6.80
2013,04,03,07,50,6.80
2013,04,03,07,51,6.80
2013,04,03,07,52,6.80
2013,04,03,07,53,6.90
2013,04,03,07,54,6.90
2013,04,03,07,55,6.90
2013,04,03,07,56,6.90
2013,04,03,07,57,6.90
2013,04,03,07,58,6.90
2013,04,03,07,59,6.90
2013,04,03,08,00,6.90
2013,04,03,08,01,6.90
2013,04,03,08,02,6.90
2013,04,03,08,03,6.90
2013,04,03,08,04,6.90
2013,04,03,08,05,7.00
2013,04,03,08,06,7.00
2013,04,03,08,07,7.00
2013,04,03,08,08,7.00
2013,04,03,08,09,7.10
2013,04,03,08,10,7.10
2013,04,03,08,11,7.10
2013,04,03,08,12,7.10
2013,04,03,08,13,7.10
2013,04,03,08,14,7.10
2013,04,03,08,15,7.10
2013,04,03,08,16,7.10
2013,04,03,08,17,7.20
2013,04,03,08,18,7.20
2013,04,03,08,19,7.20
2013,04,03,08,20,7.20
2013,04,03,08,21,7.20
2013,04,03,08,22,7.20
2013,04,03,08,23,7.20
2013,04,03,08,24,7.30
2013,04,03,08,25,7.30
2013,04,03,08,26,7.30
2013,04,03,08,27,7.30
2013,04,03,08,28,7.30
2013,04,03,08,29,7.40
2013,04,03,08,30,7.40
2013,04,03,08,31,7.40
2013,04,03,08,32,7.50
2013,04,03,08,33,7.50
2013,04,03,08,34,7.50
2013,04,03,08,35,7.60
2013,04,03,08,36,7.60
2013,04,03,08,37,7.60
2013,04,03,08,38,7.70
2013,04,03,08,39,7.70
2013,04,03,08,40,7.70
2013,04,03,08,41,7.80
2013,04,03,08,42,7.80
2013,04,03,08,43,7.80
2013,04,03,08,44,7.80
2013,04,03,08,45,7.80
2013,04,03,08,46,7.90
2013,04,03,08,47,7.90
2013,04,03,08,48,8.00
2013,04,03,08,49,8.00
2013,04,03,08,50,8.00
2013,04,03,08,51,8.10
2013,04,03,08,52,8.10
2013,04,03,08,53,8.10
2013,04,03,08,54,8.20
2013,04,03,08,55,8.20
2013,04,03,08,56,8.20
2013,04,03,08,57,8.30
2013,04,03,08,58,8.30
2013,04,03,08,59,8.30
2013,04,03,09,00,8.40
2013,04,03,09,01,8.40
2013,04,03,09,02,8.40
2013,04,03,09,03,8.40
2013,04,03,09,04,8.50
2013,04,03,09,05,8.50
2013,04,03,09,06,8.60
2013,04,03,09,07,8.60
2013,04,03,09,08,8.60
2013,04,03,09,09,8.70
2013,04,03,09,10,8.70
2013,04,03,09,11,8.70
2013,04,03,09,12,8.80
2013,04,03,09,13,8.80
2013,04,03,09,14,8.80
2013,04,03,09,15,8.90
2013,04,03,09,16,9.00
2013,04,03,09,17,9.00
2013,04,03,09,18,9.10
2013,04,03,09,19,9.10
2013,04,03,09,20,9.20
2013,04,03,09,21,9.20
2013,04,03,09,22,9.20
2013,04,03,09,23,9.30
2013,04,03,09,24,9.30
2013,04,03,09,25,9.40
2013,04,03,09,26,9.40
2013,04,03,09,27,9.50
2013,04,03,09,28,9.50
2013,04,03,09,29,9.60
2013,04,03,09,30,9.60
2013,04,03,09,31,9.60
2013,04,03,09,32,9.70
2013,04,03,09,33,9.70
2013,04,03,09,34,9.80
2013,04,03,09,35,9.80
2013,04,03,09,36,9.80
2013,04,03,09,37,9.90
2013,04,03,09,38,9.90
2013,04,03,09,39,9.90
2013,04,03,09,40,9.90
2013,04,03,09,41,10.00
2013,04,03,09,42,10.00
2013,04,03,09,43,10.00
2013,04,03,09,44,10.10
2013,04,03,09,45,10.10
2013,04,03,09,46,10.10
2013,04,03,09,47,10.10
2013,04,03,09,48,10.20
2013,04,03,09,49,10.20
2013,04,03,09,50,10.20
2013,04,03,09,51,10.20
2013,04,03,09,52,10.30
2013,04,03,09,53,10.30
2013,04,03,09,54,10.30
2013,04,03,09,55,10.40
2013,04,03,09,56,10.40
2013,04,03,09,57,10.40
2013,04,03,09,58,10.50
2013,04,03,09,59,10.50
2013,04,03,10,00,10.60
2013,04,03,10,01,10.60
2013,04,03,10,02,10.60
2013,04,03,10,03,10.60
2013,04,03,10,04,10.60
2013,04,03,10,05,10.60
2013,04,03,10,06,10.60
2013,04,03,10,07,10.60
2013,04,03,10,08,10.60
2013,04,03,10,09,10.60
2013,04,03,10,10,10.60
2013,04,03,10,11,10.60
2013,04,03,10,12,10.60
2013,04,03,10,13,10.60
2013,04,03,10,14,10.60
2013,04,03,10,15,10.60
2013,04,03,10,16,10.70
2013,04,03,10,17,10.70
2013,04,03,10,18,10.70
2013,04,03,10,19,10.70
2013,04,03,10,20,10.70
2013,04,03,10,21,10.80
2013,04,03,10,22,10.80
2013,04,03,10,23,10.80
2013,04,03,10,24,10.80
2013,04,03,10,25,10.90
2013,04,03,10,26,10.90
2013,04,03,10,27,10.90
2013,04,03,10,28,10.90
2013,04,03,10,29,10.90
2013,04,03,10,30,11.00
2013,04,03,10,31,11.00
2013,04,03,10,32,11.10
2013,04,03,10,33,11.10
2013,04,03,10,34,11.10
2013,04,03,10,35,11.10
2013,04,03,10,36,11.20
2013,04,03,10,37,11.20
2013,04,03,10,38,11.20
2013,04,03,10,39,11.30
2013,04,03,10,40,11.30
2013,04,03,10,41,11.30
2013,04,03,10,42,11.40
2013,04,03,10,43,11.40
2013,04,03,10,44,11.50
2013,04,03,10,45,11.60
2013,04,03,10,46,11.60
2013,04,03,10,47,11.70
2013,04,03,10,48,11.70
2013,04,03,10,49,11.80
2013,04,03,10,50,11.80
2013,04,03,10,51,11.90
2013,04,03,10,52,11.90
2013,04,03,10,53,11.90
2013,04,03,10,54,11.90
2013,04,03,10,55,11.90
2013,04,03,10,56,11.90
2013,04,03,10,57,11.90
2013,04,03,10,58,11.90
2013,04,03,10,59,11.90
2013,04,03,11,00,11.90
2013,04,03,11,01,11.80
2013,04,03,11,02,11.90
2013,04,03,11,03,11.90
2013,04,03,11,04,11.90
2013,04,03,11,05,11.90
2013,04,03,11,06,11.90
2013,04,03,11,07,11.90
2013,04,03,11,08,11.90
2013,04,03,11,09,11.90
2013,04,03,11,10,12.00
2013,04,03,11,11,12.00
2013,04,03,11,12,12.10
2013,04,03,11,13,12.10
2013,04,03,11,14,12.10
2013,04,03,11,15,12.10
2013,04,03,11,16,12.10
2013,04,03,11,17,12.10
2013,04,03,11,18,12.10
2013,04,03,11,19,12.00
2013,04,03,11,20,12.10
2013,04,03,11,21,12.10
2013,04,03,11,22,12.10
2013,04,03,11,23,12.10
2013,04,03,11,24,12.20
2013,04,03,11,25,12.20
2013,04,03,11,26,12.20
2013,04,03,11,27,12.20
2013,04,03,11,28,12.20
2013,04,03,11,29,12.30
2013,04,03,11,30,12.30
2013,04,03,11,31,12.30
2013,04,03,11,32,12.30
2013,04,03,11,33,12.30
2013,04,03,11,34,12.30
2013,04,03,11,35,12.30
2013,04,03,11,36,12.30
2013,04,03,11,37,12.20
2013,04,03,11,38,12.30
2013,04,03,11,39,12.30
2013,04,03,11,40,12.30
2013,04,03,11,41,12.30
2013,04,03,11,42,12.30
2013,04,03,11,43,12.30
2013,04,03,11,44,12.30
2013,04,03,11,45,12.30
2013,04,03,11,46,12.30
2013,04,03,11,47,12.30
2013,04,03,11,48,12.30
2013,04,03,11,49,12.40
2013,04,03,11,50,12.40
2013,04,03,11,51,12.40
2013,04,03,11,52,12.40
2013,04,03,11,53,12.40
2013,04,03,11,54,12.30
2013,04,03,11,55,12.30
2013,04,03,11,56,12.30
2013,04,03,11,57,12.20
2013,04,03,11,58,12.20
2013,04,03,11,59,12.20
2013,04,03,12,00,12.20
2013,04,03,12,01,12.20
2013,04,03,12,02,12.20
2013,04,03,12,03,12.20
2013,04,03,12,04,12.20
2013,04,03,12,05,12.20
2013,04,03,12,06,12.20
2013,04,03,12,07,12.30
2013,04,03,12,08,12.30
2013,04,03,12,09,12.40
2013,04,03,12,10,12.50
2013,04,03,12,11,12.50
2013,04,03,12,12,12.60
2013,04,03,12,13,12.60
2013,04,03,12,14,12.70
2013,04,03,12,15,12.80
2013,04,03,12,16,12.80
2013,04,03,12,17,12.80
2013,04,03,12,18,12.80
2013,04,03,12,19,12.80
2013,04,03,12,20,12.80
2013,04,03,12,21,12.90
2013,04,03,12,22,12.90
2013,04,03,12,23,12.90
2013,04,03,12,24,12.90
2013,04,03,12,25,12.90
2013,04,03,12,26,12.90
2013,04,03,12,27,12.90
2013,04,03,12,28,12.90
2013,04,03,12,29,12.80
2013,04,03,12,30,12.80
2013,04,03,12,31,12.80
2013,04,03,12,32,12.90
2013,04,03,12,33,12.90
2013,04,03,12,34,12.90
2013,04,03,12,35,12.90
2013,04,03,12,36,12.90
2013,04,03,12,37,13.00
2013,04,03,12,38,13.00
2013,04,03,12,39,13.10
2013,04,03,12,40,13.00
2013,04,03,12,41,13.10
2013,04,03,12,42,13.10
2013,04,03,12,43,13.10
2013,04,03,12,44,13.10
2013,04,03,12,45,13.20
2013,04,03,12,46,13.20
2013,04,03,12,47,13.10
2013,04,03,12,48,13.10
2013,04,03,12,49,13.00
2013,04,03,12,50,13.00
2013,04,03,12,51,13.00
2013,04,03,12,52,13.00
2013,04,03,12,53,12.90
2013,04,03,12,54,12.90
2013,04,03,12,55,12.90
2013,04,03,12,56,12.90
2013,04,03,12,57,12.90
2013,04,03,12,58,12.90
2013,04,03,12,59,12.90
2013,04,03,13,00,12.90
2013,04,03,13,01,12.90
2013,04,03,13,02,13.00
2013,04,03,13,03,13.00
2013,04,03,13,04,13.10
2013,04,03,13,05,13.20
2013,04,03,13,06,13.30
2013,04,03,13,07,13.30
2013,04,03,13,08,13.30
2013,04,03,13,09,13.40
2013,04,03,13,10,13.40
2013,04,03,13,11,13.50
2013,04,03,13,12,13.60
2013,04,03,13,13,13.70
2013,04,03,13,14,13.80
2013,04,03,13,15,13.80
2013,04,03,13,16,13.80
2013,04,03,13,17,13.80
2013,04,03,13,18,13.90
2013,04,03,13,19,13.90
2013,04,03,13,20,13.90
2013,04,03,13,21,13.90
2013,04,03,13,22,14.00
2013,04,03,13,23,14.00
2013,04,03,13,24,14.00
2013,04,03,13,25,13.90
2013,04,03,13,26,14.00
2013,04,03,13,27,14.00
2013,04,03,13,28,14.00
2013,04,03,13,29,14.10
2013,04,03,13,30,14.10
2013,04,03,13,31,14.10
2013,04,03,13,32,14.20
2013,04,03,13,33,14.20
2013,04,03,13,34,14.20
2013,04,03,13,35,14.20
2013,04,03,13,36,14.30
2013,04,03,13,37,14.30
2013,04,03,13,38,14.30
2013,04,03,13,39,14.30
2013,04,03,13,40,14.30
2013,04,03,13,41,14.20
2013,04,03,13,42,14.20
2013,04,03,13,43,14.20
2013,04,03,13,44,14.10
2013,04,03,13,45,14.10
2013,04,03,13,46,14.10
2013,04,03,13,47,14.00
2013,04,03,13,48,14.00
2013,04,03,13,49,14.00
2013,04,03,13,50,14.00
2013,04,03,13,51,13.90
2013,04,03,13,52,13.90
2013,04,03,13,53,13.90
2013,04,03,13,54,13.90
2013,04,03,13,55,13.80
2013,04,03,13,56,13.80
2013,04,03,13,57,13.80
2013,04,03,13,58,13.80
2013,04,03,13,59,13.70
2013,04,03,14,00,13.80
2013,04,03,14,01,13.80
2013,04,03,14,02,13.80
2013,04,03,14,03,13.90
2013,04,03,14,04,13.90
2013,04,03,14,05,14.00
2013,04,03,14,06,14.00
2013,04,03,14,07,14.00
2013,04,03,14,08,14.00
2013,04,03,14,09,14.00
2013,04,03,14,10,14.00
2013,04,03,14,11,13.90
2013,04,03,14,12,13.90
2013,04,03,14,13,13.80
2013,04,03,14,14,13.80
2013,04,03,14,15,13.80
2013,04,03,14,16,13.80
2013,04,03,14,17,13.80
2013,04,03,14,18,13.90
2013,04,03,14,19,13.90
2013,04,03,14,20,13.90
2013,04,03,14,21,13.90
2013,04,03,14,22,14.00
2013,04,03,14,23,14.00
2013,04,03,14,24,13.90
2013,04,03,14,25,13.90
2013,04,03,14,26,13.90
2013,04,03,14,27,13.90
2013,04,03,14,28,13.90
2013,04,03,14,29,13.90
2013,04,03,14,30,13.80
2013,04,03,14,31,13.80
2013,04,03,14,32,13.80
2013,04,03,14,33,13.80
2013,04,03,14,34,13.90
2013,04,03,14,35,13.90
2013,04,03,14,36,13.90
2013,04,03,14,37,13.90
2013,04,03,14,38,13.90
2013,04,03,14,39,13.90
2013,04,03,14,40,13.80
2013,04,03,14,41,13.90
2013,04,03,14,42,13.90
2013,04,03,14,43,13.80
2013,04,03,14,44,13.80
2013,04,03,14,45,13.80
2013,04,03,14,46,13.90
2013,04,03,14,47,13.90
2013,04,03,14,48,13.90
2013,04,03,14,49,14.00
2013,04,03,14,50,14.00
2013,04,03,14,51,14.10
2013,04,03,14,52,14.10
2013,04,03,14,53,14.20
2013,04,03,14,54,14.20
2013,04,03,14,55,14.20
2013,04,03,14,56,14.20
2013,04,03,14,57,14.20
2013,04,03,14,58,14.10
2013,04,03,14,59,14.10
2013,04,03,15,00,14.10
2013,04,03,15,01,14.10
2013,04,03,15,02,14.10
2013,04,03,15,03,14.00
2013,04,03,15,04,14.00
2013,04,03,15,05,13.90
2013,04,03,15,06,13.90
2013,04,03,15,07,13.90
2013,04,03,15,08,13.90
2013,04,03,15,09,13.90
2013,04,03,15,10,13.90
2013,04,03,15,11,13.90
2013,04,03,15,12,13.90
2013,04,03,15,13,13.90
2013,04,03,15,14,13.90
2013,04,03,15,15,13.80
2013,04,03,15,16,13.70
2013,04,03,15,17,13.70
2013,04,03,15,18,13.60
2013,04,03,15,19,13.50
2013,04,03,15,20,13.40
2013,04,03,15,21,13.40
2013,04,03,15,22,13.40
2013,04,03,15,23,13.30
2013,04,03,15,24,13.30
2013,04,03,15,25,13.20
2013,04,03,15,26,13.20
2013,04,03,15,27,13.10
2013,04,03,15,28,13.00
2013,04,03,15,29,13.00
2013,04,03,15,30,13.00
2013,04,03,15,31,13.00
2013,04,03,15,32,13.00
2013,04,03,15,33,13.00
2013,04,03,15,34,12.90
2013,04,03,15,35,12.90
2013,04,03,15,36,12.80
2013,04,03,15,37,12.80
2013,04,03,15,38,12.80
2013,04,03,15,39,12.80
2013,04,03,15,40,12.80
2013,04,03,15,41,12.80
2013,04,03,15,42,12.80
2013,04,03,15,43,12.80
2013,04,03,15,44,12.70
2013,04,03,15,45,12.70
2013,04,03,15,46,12.70
2013,04,03,15,47,12.70
2013,04,03,15,48,12.70
2013,04,03,15,49,12.80
2013,04,03,15,50,12.80
2013,04,03,15,51,12.80
2013,04,03,15,52,12.80
2013,04,03,15,53,12.80
2013,04,03,15,54,12.70
2013,04,03,15,55,12.70
2013,04,03,15,56,12.70
2013,04,03,15,57,12.70
2013,04,03,15,58,12.70
2013,04,03,15,59,12.70
2013,04,03,16,00,12.70
2013,04,03,16,01,12.80
2013,04,03,16,02,12.80
2013,04,03,16,03,12.90
2013,04,03,16,04,12.90
2013,04,03,16,05,12.90
2013,04,03,16,06,12.90
2013,04,03,16,07,12.90
2013,04,03,16,08,12.90
2013,04,03,16,09,12.90
2013,04,03,16,10,13.00
2013,04,03,16,11,13.00
2013,04,03,16,12,13.10
2013,04,03,16,13,13.10
2013,04,03,16,14,13.10
2013,04,03,16,15,13.10
2013,04,03,16,16,13.10
2013,04,03,16,17,13.20
2013,04,03,16,18,13.20
2013,04,03,16,19,13.20
2013,04,03,16,20,13.20
2013,04,03,16,21,13.20
2013,04,03,16,22,13.20
2013,04,03,16,23,13.30
2013,04,03,16,24,13.30
2013,04,03,16,25,13.30
2013,04,03,16,26,13.20
2013,04,03,16,27,13.20
2013,04,03,16,28,13.20
2013,04,03,16,29,13.20
2013,04,03,16,30,13.20
2013,04,03,16,31,13.20
2013,04,03,16,32,13.10
2013,04,03,16,33,13.20
2013,04,03,16,34,13.20
2013,04,03,16,35,13.20
2013,04,03,16,36,13.20
2013,04,03,16,37,13.20
2013,04,03,16,38,13.20
2013,04,03,16,39,13.30
2013,04,03,16,40,13.40
2013,04,03,16,41,13.40
2013,04,03,16,42,13.40
2013,04,03,16,43,13.40
2013,04,03,16,44,13.40
2013,04,03,16,45,13.40
2013,04,03,16,46,13.40
2013,04,03,16,47,13.40
2013,04,03,16,48,13.40
2013,04,03,16,49,13.40
2013,04,03,16,50,13.40
2013,04,03,16,51,13.40
2013,04,03,16,52,13.40
2013,04,03,16,53,13.40
2013,04,03,16,54,13.40
2013,04,03,16,55,13.40
2013,04,03,16,56,13.40
2013,04,03,16,57,13.40
2013,04,03,16,58,13.50
2013,04,03,16,59,13.40
2013,04,03,17,00,13.40
2013,04,03,17,01,13.50
2013,04,03,17,02,13.50
2013,04,03,17,03,13.50
2013,04,03,17,04,13.50
2013,04,03,17,05,13.60
2013,04,03,17,06,13.60
2013,04,03,17,07,13.60
2013,04,03,17,08,13.60
2013,04,03,17,09,13.60
2013,04,03,17,10,13.60
2013,04,03,17,11,13.60
2013,04,03,17,12,13.60
2013,04,03,17,13,13.50
2013,04,03,17,14,13.60
2013,04,03,17,15,13.60
2013,04,03,17,16,13.60
2013,04,03,17,17,13.60
2013,04,03,17,18,13.70
2013,04,03,17,19,13.70
2013,04,03,17,20,13.70
2013,04,03,17,21,13.70
2013,04,03,17,22,13.70
2013,04,03,17,23,13.70
2013,04,03,17,24,13.70
2013,04,03,17,25,13.70
2013,04,03,17,26,13.70
2013,04,03,17,27,13.80
2013,04,03,17,28,13.80
2013,04,03,17,29,13.80
2013,04,03,17,30,13.80
2013,04,03,17,31,13.90
2013,04,03,17,32,13.90
2013,04,03,17,33,13.90
2013,04,03,17,34,13.90
2013,04,03,17,35,13.90
2013,04,03,17,36,13.90
2013,04,03,17,37,13.80
2013,04,03,17,38,13.80
2013,04,03,17,39,13.70
2013,04,03,17,40,13.70
2013,04,03,17,41,13.70
2013,04,03,17,42,13.70
2013,04,03,17,43,13.70
2013,04,03,17,44,13.70